Location: St. Louis
(38.6270°N, 90.1994°W)
Time: 14:34:49
(UTC-05:00)

IRIDIUM 33 DEB - Visible Passes

Search period start: 24 September 2022 00:00
Search period end: 04 October 2022 00:00
Orbit: 608 x 647 km, 86.4° (Epoch: 24 September)

Date Brightness Start Highest point End Pass type
(mag) Time Alt. Az. Time Alt. Az. Time Alt. Az.
24 Sep ? 21:34:09 10° N 21:35:31 20° N 21:35:31 20° N visible
25 Sep ? 20:17:54 10° NE 20:18:14 11° NE 20:18:14 11° NE visible
25 Sep ? 21:54:14 10° NNW 21:55:33 18° NNW 21:55:33 18° NNW visible
26 Sep ? 20:36:47 10° NNE 20:38:14 18° NNE 20:38:14 18° NNE visible
26 Sep ? 22:14:41 10° NNW 22:15:34 14° NW 22:15:34 14° NW visible
27 Sep ? 20:56:11 10° N 20:58:14 26° NNE 20:58:14 26° NNE visible
28 Sep ? 21:15:52 10° N 21:18:13 30° NNW 21:18:13 30° NNW visible
29 Sep ? 19:59:13 10° NE 20:00:51 16° NE 20:00:51 16° NE visible
29 Sep ? 21:35:51 10° NNW 21:38:11 26° NW 21:38:11 26° NW visible
30 Sep ? 20:18:04 10° NNE 20:20:50 27° NE 20:20:50 27° NE visible
30 Sep ? 21:56:12 10° NW 21:58:10 18° WNW 21:58:10 18° WNW visible
01 Oct ? 20:37:21 10° N 20:40:49 48° NNE 20:40:49 48° NNE visible
01 Oct ? 22:18:05 10° WNW 22:18:09 10° WNW 22:18:09 10° WNW visible
02 Oct ? 19:22:41 10° ENE 19:23:25 10° ENE 19:23:29 10° ENE visible
02 Oct ? 20:56:55 10° N 21:00:49 58° NW 21:00:49 58° NW visible
03 Oct ? 19:39:54 10° NNE 19:43:13 20° ENE 19:43:32 19° E visible
03 Oct ? 21:16:46 10° NNW 21:20:50 33° W 21:20:53 33° W visible
